GW4477 Weather Reports


time (UTC)temp
F
wind
direction
speed
knots
gust
knots
rain 1hr
in
rain 24hr
in
rain mn
in
humidity
%
barometer
mb
20260905114511 72 171 0.0 1.7 0.00 0.00 0.00 68 1015.0
20260905113012 73 171 0.9 2.6 0.00 0.00 0.00 66 1015.1
20260905111517 74 143 0.9 7.0 0.00 0.00 0.00 64 1015.0
20260905110007 75 171 3.5 7.8 0.00 0.00 0.00 63 1015.0
20260905104513 75 155 2.6 7.8 0.00 0.00 0.00 61 1014.6
20260905103016 76 246 0.9 5.2 0.00 0.00 0.00 59 1014.1
20260905101527 77 244 0.9 3.5 0.00 0.00 0.00 57 1014.1
20260905100020 77 261 1.7 6.1 0.00 0.00 0.00 58 1014.3
20260905094511 77 222 1.7 7.0 0.00 0.00 0.00 59 1014.2
20260905093021 77 219 4.3 10.4 0.00 0.00 0.00 57 1014.2
20260905091520 78 272 3.5 12.2 0.00 0.00 0.00 56 1014.5
20260905090023 78 211 6.1 13.0 0.00 0.00 0.00 56 1014.5
20260905084527 77 229 5.2 11.3 0.00 0.00 0.00 58 1014.9
20260905083021 75 237 6.1 12.2 0.00 0.00 0.00 62 1014.8
20260905081524 75 191 4.3 11.3 0.00 0.00 0.00 63 1015.3
20260905080033 75 188 5.2 10.4 0.00 0.00 0.00 66 1015.4
20260905074530 75 193 3.5 12.2 0.00 0.00 0.00 69 1015.6
20260905073035 75 142 5.2 14.8 0.00 0.00 0.00 70 1015.8
20260905071523 75 192 7.0 16.5 0.00 0.00 0.00 65 1014.8
20260905070058 77 225 9.6 16.5 0.00 0.00 0.00 61 1014.8
20260905064529 78 208 7.8 13.9 0.00 0.00 0.00 56 1015.0
20260905063030 78 258 5.2 12.2 0.00 0.00 0.00 56 1015.2
20260905061533 77 231 5.2 9.6 0.00 0.00 0.00 57 1015.4
20260905060034 76 198 3.5 10.4 0.00 0.00 0.00 60 1015.5
20260905054544 76 209 5.2 12.2 0.00 0.00 0.00 61 1015.5
20260905053012 78 205 4.3 9.6 0.00 0.00 0.00 57 1015.8
20260905051534 79 352 4.3 13.0 0.00 0.00 0.00 52 1016.0
20260905050023 80 227 4.3 12.2 0.00 0.00 0.00 51 1016.2
20260905044528 80 217 6.1 11.3 0.00 0.00 0.00 52 1015.9
20260905043008 80 222 6.1 12.2 0.00 0.00 0.00 52 1015.6
20260905041512 80 186 7.0 11.3 0.00 0.00 0.00 53 1015.8
20260905040022 79 209 6.1 13.0 0.00 0.00 0.00 58 1015.8
20260905034533 79 223 6.1 15.6 0.00 0.00 0.00 60 1015.9
20260905033039 80 224 6.1 11.3 0.00 0.00 0.00 57 1016.2
20260905031515 81 197 6.1 13.9 0.00 0.00 0.00 52 1016.2
20260905030017 81 194 4.3 9.6 0.00 0.00 0.00 51 1016.0
20260905024523 83 188 4.3 13.0 0.00 0.00 0.00 47 1015.3
20260905023033 86 192 7.0 12.2 0.00 0.00 0.00 40 1015.2
20260905021532 86 213 2.6 9.6 0.00 0.00 0.00 37 1014.9
20260905020021 84 167 5.2 7.8 0.00 0.00 0.00 43 1014.4
20260905014520 84 198 4.3 10.4 0.00 0.00 0.00 45 1014.2
20260905013030 84 207 4.3 10.4 0.00 0.00 0.00 44 1014.0
20260905011534 84 225 6.1 11.3 0.00 0.00 0.00 46 1013.9
20260905010014 82 210 4.3 8.7 0.00 0.00 0.00 51 1013.8
20260905004520 80 209 5.2 14.8 0.00 0.00 0.00 58 1013.7
20260905003030 85 252 5.2 12.2 0.00 0.00 0.00 49 1013.9
20260905001528 87 138 4.3 7.8 0.00 0.00 0.00 42 1013.8
20260905000030 86 250 2.6 7.0 0.00 0.00 0.00 43 1013.9
20260904234532 88 244 0.9 7.0 0.00 0.00 0.00 42 1013.8
20260904233025 91 261 1.7 6.1 0.00 0.00 0.00 38 1013.8
20260904231508 94 188 2.6 8.7 0.00 0.00 0.00 38 1013.1
20260904230010 94 360 2.6 7.8 0.00 0.00 0.00 37 1012.9
20260904224502 95 360 4.3 8.7 0.00 0.00 0.00 36 1013.1
20260904223004 96 190 5.2 8.7 0.00 0.00 0.00 34 1013.0
20260904221505 97 360 7.0 13.0 0.00 0.00 0.00 34 1012.9
20260904220010 97 360 7.0 12.2 0.00 0.00 0.00 34 1012.8
20260904214514 97 176 6.1 12.2 0.00 0.00 0.00 34 1012.8
20260904213002 99 134 7.8 14.8 0.00 0.00 0.00 34 1012.8
20260904211504 99 169 7.8 13.9 0.00 0.00 0.00 34 1012.9
20260904210006 100 196 7.0 13.0 0.00 0.00 0.00 34 1012.9
20260904204510 99 171 7.0 15.6 0.00 0.00 0.00 35 1013.0
20260904203031 99 209 5.2 14.8 0.00 0.00 0.00 36 1013.3
20260904201504 100 209 5.2 12.2 0.00 0.00 0.00 35 1013.5
20260904200009 100 148 5.2 11.3 0.00 0.00 0.00 35 1013.5
20260904194509 100 360 7.0 10.4 0.00 0.00 0.00 35 1013.7
20260904193014 99 360 4.3 12.2 0.00 0.00 0.00 35 1013.8
20260904191525 98 151 3.5 11.3 0.00 0.00 0.00 35 1014.0
20260904190009 98 360 5.2 9.6 0.00 0.00 0.00 37 1014.1
20260904184508 97 188 4.3 13.0 0.00 0.00 0.00 36 1014.3
20260904183011 96 169 5.2 10.4 0.00 0.00 0.00 40 1014.4
20260904181521 95 360 5.2 11.3 0.00 0.00 0.00 41 1014.6
20260904180024 95 144 4.3 9.6 0.00 0.00 0.00 43 1014.7
20260904174508 94 360 5.2 9.6 0.00 0.00 0.00 44 1015.0
20260904173011 93 360 4.3 10.4 0.00 0.00 0.00 47 1015.0
20260904171519 92 189 3.5 9.6 0.00 0.00 0.00 47 1015.1
20260904170027 90 360 5.2 8.7 0.00 0.00 0.00 49 1015.0
20260904164531 90 360 5.2 11.3 0.00 0.00 0.00 50 1015.0
20260904163010 89 360 6.1 9.6 0.00 0.00 0.00 51 1015.1
20260904161514 88 144 4.3 12.2 0.00 0.00 0.00 55 1015.0
20260904160042 86 360 3.5 10.4 0.00 0.00 0.00 57 1014.8
20260904154535 85 360 4.3 13.9 0.00 0.00 0.00 60 1015.0
20260904153031 84 175 6.1 9.6 0.00 0.00 0.00 63 1015.0
20260904151518 83 259 6.1 14.8 0.00 0.00 0.00 65 1015.0
20260904150037 81 360 4.3 9.6 0.00 0.00 0.00 69 1015.1
20260904144527 80 252 2.6 8.7 0.00 0.00 0.00 73 1015.2
20260904143033 79 242 4.3 10.4 0.00 0.00 0.00 75 1015.4
20260904141520 78 360 2.6 7.0 0.00 0.00 0.00 78 1015.4
20260904140025 76 360 3.5 7.8 0.00 0.00 0.00 79 1015.5
20260904134503 75 360 4.3 7.8 0.00 0.00 0.00 80 1015.4
20260904133006 74 178 2.6 7.0 0.00 0.00 0.00 82 1015.2
20260904131513 72 360 1.7 3.5 0.00 0.00 0.00 82 1015.1
20260904130032 71 360 1.7 4.3 0.00 0.00 0.00 83 1015.0
20260904124523 70 194 1.7 5.2 0.00 0.00 0.00 82 1014.7
20260904123006 70 360 2.6 7.0 0.00 0.00 0.00 82 1014.6
20260904121518 70 360 2.6 5.2 0.00 0.00 0.00 81 1014.5
20260904120019 70 360 1.7 4.3 0.00 0.00 0.00 80 1014.4